Location: Bilsen
(53.7722°N, 9.8765°E)
Time: 20:39:35
(UTC+00:00)

Cosmos 1934 Rocket - Pass Details

Date: 18 February 2020
Orbit: 939 x 998 km, 83.0° (Epoch: 07 April)

Event Time Altitude Azimuth Distance (km) Brightness Sun altitude
Rises 04:05:20 0° 346° (NNW) 3,686 7.0 -22.6°
Reaches altitude 10° 04:07:57 10° 340° (NNW) 2,743 6.2 -22.3°
Maximum altitude 04:13:49 43° 271° (W) 1,354 4.3 -21.4°
Enters shadow 04:17:09 24° 215° (SW) 1,918 5.2 -20.9°
Exits shadow 04:18:51 14° 205° (SSW) 2,451 5.8 -20.7°
Drops below altitude 10° 04:19:44 10° 202° (SSW) 2,756 6.1 -20.5°
Sets 04:22:23 0° 196° (SSW) 3,705 6.8 -20.1°
